This demonstration page uses our WeatherBlox Daily Observations layout. Learn more.

Left ArrowRight Arrow

39.08367, -84.50855

Hourly Observations for November 11, 2022

Temp ( °F °C ) Dew Point ( °F °C ) Humidity (%) Winds ( mph kmh ) Pressure ( in mb ) Visibility ( mi km ) Precip ( " mm )
12:53 am 00:53 Mostly Cloudy 50 10 44 6.7 80 80 undefined N/A 29.90 1013 10 16 0.00 0.00
1:53 am 01:53 Cloudy 51 10.6 46 7.8 83 83 Calm 29.88 1012 10 16 0.00 0.00
2:53 am 02:53 Cloudy 53 11.7 47 8.3 80 80 ENE 3 6 29.86 1011 9 14 0.00 0.00
3:53 am 03:53 Cloudy with Light Rain 53 11.7 48 8.9 83 83 Calm 29.84 1011 10 16 0.01 0.13
4:53 am 04:53 Cloudy 54 12.2 48 8.9 80 80 Calm 29.83 1010 9 14 0.01 0.13
5:32 am 05:32 Cloudy with Rain 53 11.7 49 9.4 86 86 Calm 29.84 1011 2 3 0.01 0.25
5:53 am 05:53 Cloudy with Heavy Rain 52 11.1 51 10.6 97 97 NNE 5 7 29.82 1010 2 2 0.14 3.56
6:53 am 06:53 Cloudy with Rain 52 11.1 52 11.1 100 100 SE 5 7 29.80 1009 2 3 0.32 8.13
7:07 am 07:07 Cloudy with Rain 52 11.1 52 11.1 100 100 Calm 29.80 1009 2 3 0.02 0.51
7:18 am 07:18 Cloudy with Rain 53 11.7 53 11.7 100 100 Calm 29.80 1009 2 3 0.05 1.27
7:33 am 07:33 Cloudy with Heavy Rain 53 11.7 53 11.7 100 100 Calm 29.80 1009 2 3 0.17 4.32
7:53 am 07:53 Cloudy with Heavy Rain 53 11.7 53 11.7 100 100 Calm 29.80 1009 2 3 0.26 6.60
8:35 am 08:35 Cloudy with Rain 55 12.8 55 12.8 100 100 Calm 29.80 1009 2 3 0.07 1.78
8:53 am 08:53 Cloudy with Rain 55 12.8 55 12.8 100 100 Calm 29.80 1009 1 2 0.12 3.05
9:02 am 09:02 Cloudy with Rain 55 12.8 55 12.8 100 100 Calm 29.79 1009 1 2 0.01 0.25
9:23 am 09:23 Cloudy with Rain 57 13.9 57 13.9 100 100 Calm 29.79 1009 1 2 0.05 1.27
9:53 am 09:53 Cloudy with Light Rain 57 13.9 57 13.9 100 100 Calm 29.78 1009 2 3 0.07 1.78
10:11 am 10:11 Cloudy with Light Rain 58 14.4 58 14.4 100 100 Calm 29.78 1008 2 3 0.01 0.25
10:20 am 10:20 Cloudy with Light Rain 59 15 58 14.4 96 96 VRB 5 7 29.77 1008 2 3 0.02 0.51
10:53 am 10:53 Cloudy with Rain 59 15 58 14.4 96 96 NNE 7 11 29.74 1007 2 3 0.08 2.03
11:00 am 11:00 Cloudy with Heavy Rain 58 14.4 58 14.4 100 100 N 8 13 29.74 1007 1 2 0.02 0.51
11:22 am 11:22 Cloudy with Light Rain 58 14.4 58 14.4 100 100 Calm 29.74 1007 3 4 0.06 1.52
11:33 am 11:33 Cloudy with Light Rain 59 15 58 14.4 96 96 N 6 9 29.72 1006 3 5 0.07 1.78
11:53 am 11:53 Cloudy with Light Rain 58 14.4 57 13.9 97 97 NE 6 9 29.70 1006 3 4 0.09 2.29
12:30 pm 12:30 Cloudy with Light Rain 59 15 57 13.9 93 93 WNW 8 13 29.70 1006 3 4 0.05 1.27
12:38 pm 12:38 Cloudy with Light Rain 59 15 57 13.9 93 93 NW 8 13 29.69 1005 3 5 0.05 1.27
12:53 pm 12:53 Cloudy with Light Rain 59 15 57 13.9 93 93 N 6 9 29.66 1005 4 6 0.06 1.52
1:53 pm 13:53 Cloudy with Light Rain 58 14.4 56 13.3 93 93 NW 8 13 29.66 1004 5 8 0.01 0.25
2:12 pm 14:12 Cloudy with Mist and Fog 58 14.4 56 13.3 93 93 NNW 6 9 29.66 1004 6 10 0.01 0.13
2:28 pm 14:28 Cloudy with Mist and Fog 59 15 57 13.9 93 93 NNE 5 7 29.65 1004 5 8 0.01 0.13
2:53 pm 14:53 Cloudy with Mist and Fog 59 15 57 13.9 93 93 NNW 3 6 29.65 1004 6 10 0.01 0.13
3:53 pm 15:53 Cloudy 59 15 55 12.8 87 87 VRB 3 6 29.66 1005 8 13 0.00 0.00
4:53 pm 16:53 Partly Cloudy 59 15 56 13.3 90 90 Calm 29.66 1004 8 13 0.00 0.00
5:53 pm 17:53 Partly Cloudy 60 15.6 53 11.7 78 78 NW 12 19 29.68 1005 9 14 0.00 0.00
6:53 pm 18:53 Mostly Clear 54 12.2 50 10 86 86 WNW 14 22 29.73 1007 10 16 0.00 0.00
7:08 pm 19:08 Mostly Cloudy with Haze 54 12.2 49 9.4 83 83 W 12 19 29.75 1008 6 10 0.00 0.00
7:53 pm 19:53 Cloudy with Haze 53 11.7 48 8.9 83 83 W 9 15 29.78 1008 6 10 0.00 0.00
8:53 pm 20:53 Cloudy 52 11.1 47 8.3 83 83 WNW 8 13 29.78 1009 9 14 0.00 0.00
9:53 pm 21:53 Cloudy 51 10.6 44 6.7 77 77 WNW 15 24 29.83 1010 8 13 0.00 0.00
10:51 pm 22:51 Cloudy 48 9 39 4 71 71 WNW 13 20 29.87 1012 10 16 0.00 0.00
10:53 pm 22:53 Cloudy 48 8.9 39 3.9 71 71 WNW 12 19 29.85 1011 10 16 0.00 0.00
11:53 pm 23:53 Cloudy 47 8.3 36 2.2 65 65 VRB 7 11 29.88 1012 10 16 0.00 0.00

Powered by AerisWeather